Total_Precipitation_Accumulation
0.28 0.44 0.77 0.44 0.29 0.45 0.66 0.59 0.64 0.55 0.78 0.66 0.40 0.17 0.07 0.05 0.07 0.07 0.08 0.07 0.05 0.08 0.02 0.00 0.00 0.01 0.03 0.05 0.08 0.05 0.14 0.09 0.14 0.15 0.14 0.08 0.03 0.01 0.00 0.00 0.00 0.00 0.01 0.01 0.02 0.05 0.02 0.00 0.00 0.00 0.01 0.00 0.00 0.00
0.30 0.37 0.62 0.56 0.31 0.36 0.64 0.55 0.61 0.62 0.63 0.81 0.56 0.33 0.20 0.07 0.04 0.07 0.06 0.08 0.04 0.08 0.03 0.00 0.00 0.00 0.01 0.03 0.07 0.13 0.08 0.04 0.04 0.08 0.06 0.05 0.02 0.01 0.00 0.01 0.00 0.00 0.00 0.00 0.00 0.00 0.00 0.00 0.00 0.00 0.00 0.00 0.00 0.00
0.31 0.37 0.57 0.59 0.32 0.33 0.53 0.54 0.50 0.65 0.66 0.71 0.68 0.52 0.36 0.13 0.03 0.05 0.05 0.11 0.11 0.22 0.10 0.00 0.00 0.00 0.00 0.00 0.01 0.12 0.12 0.12 0.11 0.09 0.10 0.09 0.06 0.02 0.02 0.01 0.00 0.00 0.00 0.00 0.01 0.00 0.00 0.00 0.00 0.00 0.00 0.00 0.00 0.00
0.32 0.39 0.57 0.62 0.38 0.30 0.42 0.53 0.43 0.59 0.72 0.70 0.68 0.66 0.55 0.23 0.09 0.07 0.09 0.13 0.16 0.19 0.21 0.08 0.00 0.00 0.00 0.00 0.00 0.02 0.11 0.09 0.11 0.11 0.17 0.10 0.06 0.03 0.03 0.03 0.03 0.02 0.02 0.00 0.01 0.00 0.00 0.00 0.00 0.00 0.00 0.00 0.00 0.00
0.33 0.45 0.60 0.65 0.46 0.31 0.35 0.50 0.40 0.49 0.69 0.72 0.72 0.64 0.66 0.45 0.19 0.16 0.16 0.15 0.14 0.10 0.17 0.06 0.00 0.00 0.00 0.00 0.00 0.00 0.04 0.14 0.18 0.16 0.14 0.08 0.08 0.07 0.04 0.02 0.01 0.01 0.01 0.03 0.01 0.00 0.00 0.00 0.00 0.00 0.00 0.00 0.00 0.00
0.35 0.49 0.65 0.66 0.54 0.36 0.32 0.47 0.40 0.45 0.63 0.73 0.74 0.69 0.75 0.67 0.33 0.29 0.32 0.18 0.18 0.17 0.19 0.22 0.08 0.00 0.00 0.00 0.00 0.00 0.01 0.04 0.16 0.28 0.21 0.11 0.04 0.05 0.04 0.02 0.00 0.00 0.00 0.00 0.00 0.00 0.00 0.00 0.00 0.00 0.00 0.00 0.00 0.00
0.34 0.52 0.69 0.73 0.58 0.40 0.33 0.44 0.43 0.45 0.59 0.72 0.77 0.82 0.82 0.63 0.30 0.15 0.12 0.05 0.10 0.20 0.42 0.40 0.14 0.02 0.00 0.01 0.01 0.00 0.01 0.01 0.03 0.09 0.14 0.11 0.06 0.13 0.14 0.02 0.00 0.00 0.00 0.00 0.00 0.00 0.00 0.00 0.00 0.00 0.00 0.00 0.00 0.00
0.35 0.52 0.77 0.85 0.59 0.39 0.36 0.42 0.46 0.46 0.57 0.79 0.89 0.93 0.93 0.95 0.57 0.21 0.09 0.07 0.05 0.17 0.45 0.46 0.20 0.04 0.01 0.02 0.02 0.01 0.01 0.01 0.01 0.02 0.01 0.00 0.02 0.10 0.09 0.00 0.00 0.00 0.00 0.00 0.00 0.00 0.00 0.00 0.00 0.00 0.00 0.00 0.00 0.00
0.35 0.53 0.80 0.87 0.58 0.42 0.38 0.46 0.53 0.57 0.70 1.04 1.27 1.55 1.91 1.61 0.80 0.28 0.18 0.33 0.23 0.14 0.44 0.38 0.09 0.04 0.01 0.02 0.04 0.04 0.04 0.03 0.02 0.01 0.00 0.00 0.00 0.01 0.00 0.00 0.00 0.00 0.00 0.00 0.00 0.00 0.00 0.00 0.00 0.00 0.00 0.00 0.00 0.00
0.34 0.54 0.83 0.89 0.61 0.49 0.49 0.57 0.71 0.84 1.05 1.54 2.00 2.40 2.79 1.46 0.46 0.32 0.61 0.96 1.09 0.71 0.21 0.10 0.02 0.03 0.01 0.02 0.06 0.09 0.13 0.07 0.05 0.01 0.00 0.01 0.00 0.00 0.00 0.00 0.00 0.00 0.00 0.00 0.00 0.00 0.00 0.00 0.00 0.00 0.00 0.00 0.00 0.00
0.32 0.57 0.84 0.84 0.66 0.63 0.78 0.80 0.99 1.08 1.23 1.97 2.72 2.10 1.45 0.72 0.67 0.71 1.14 0.91 1.28 1.08 0.35 0.01 0.02 0.02 0.00 0.01 0.03 0.04 0.13 0.15 0.08 0.00 0.00 0.00 0.00 0.00 0.00 0.00 0.00 0.00 0.00 0.00 0.00 0.00 0.00 0.00 0.00 0.00 0.00 0.00 0.00 0.00
0.34 0.62 0.82 0.79 0.79 0.89 0.85 0.78 0.72 1.06 1.61 1.68 1.32 1.11 1.23 0.65 0.95 1.56 0.87 0.60 0.44 0.42 0.09 0.00 0.01 0.02 0.01 0.02 0.02 0.03 0.03 0.07 0.04 0.04 0.06 0.00 0.00 0.00 0.00 0.00 0.00 0.00 0.00 0.00 0.00 0.00 0.00 0.00 0.00 0.00 0.00 0.00 0.00 0.00
0.42 0.57 0.76 0.80 0.76 0.70 0.54 0.59 0.62 1.21 0.71 0.50 0.72 1.36 1.35 0.98 1.01 1.00 0.42 0.44 0.12 0.11 0.01 0.01 0.05 0.05 0.08 0.09 0.08 0.04 0.05 0.05 0.03 0.04 0.03 0.00 0.00 0.00 0.00 0.00 0.00 0.00 0.00 0.00 0.00 0.00 0.00 0.00 0.00 0.00 0.00 0.00 0.00 0.00
0.46 0.53 0.76 0.76 0.70 0.70 0.61 0.79 0.92 1.07 0.43 0.94 1.10 1.36 0.75 0.77 0.23 0.07 0.02 0.00 0.01 0.00 0.00 0.01 0.02 0.02 0.04 0.09 0.08 0.07 0.04 0.04 0.02 0.00 0.00 0.00 0.00 0.00 0.00 0.00 0.00 0.00 0.00 0.00 0.00 0.00 0.00 0.00 0.00 0.00 0.00 0.00 0.00 0.00
0.48 0.48 0.63 0.65 0.63 0.75 0.77 1.00 0.93 0.85 0.72 0.75 0.42 0.49 0.20 0.13 0.01 0.00 0.01 0.00 0.00 0.00 0.00 0.03 0.05 0.06 0.07 0.08 0.07 0.10 0.13 0.06 0.00 0.00 0.00 0.00 0.00 0.00 0.00 0.00 0.00 0.00 0.00 0.00 0.00 0.00 0.00 0.00 0.00 0.00 0.00 0.00 0.00 0.00
0.51 0.66 0.76 0.70 0.70 0.76 0.89 1.01 0.98 0.96 0.92 0.47 0.27 0.10 0.05 0.07 0.05 0.04 0.04 0.01 0.00 0.01 0.10 0.17 0.18 0.24 0.15 0.09 0.10 0.06 0.05 0.01 0.00 0.00 0.00 0.00 0.00 0.00 0.00 0.00 0.00 0.00 0.00 0.00 0.00 0.00 0.00 0.00 0.00 0.00 0.00 0.00 0.00 0.00
0.73 1.15 0.78 0.62 0.72 0.87 1.25 1.72 2.09 1.44 1.02 0.47 0.20 0.03 0.03 0.05 0.04 0.02 0.02 0.01 0.01 0.11 0.11 0.13 0.15 0.15 0.08 0.07 0.03 0.00 0.00 0.00 0.00 0.00 0.00 0.00 0.00 0.00 0.00 0.00 0.00 0.00 0.00 0.00 0.00 0.00 0.00 0.00 0.00 0.00 0.00 0.00 0.00 0.00
0.40 0.33 0.48 0.68 1.04 1.70 2.30 1.59 1.48 0.99 0.74 0.22 0.10 0.04 0.03 0.01 0.04 0.05 0.03 0.01 0.02 0.05 0.07 0.03 0.04 0.10 0.12 0.04 0.00 0.00 0.00 0.00 0.00 0.00 0.00 0.00 0.00 0.00 0.00 0.00 0.00 0.00 0.00 0.00 0.00 0.00 0.00 0.00 0.00 0.00 0.00 0.00 0.00 0.00
0.24 0.33 0.47 0.78 1.34 2.32 2.55 1.36 0.69 0.42 0.23 0.10 0.05 0.07 0.06 0.04 0.06 0.04 0.03 0.01 0.01 0.04 0.05 0.17 0.24 0.07 0.01 0.00 0.00 0.00 0.00 0.00 0.00 0.00 0.00 0.00 0.00 0.00 0.00 0.00 0.00 0.00 0.00 0.00 0.00 0.00 0.00 0.00 0.00 0.00 0.00 0.00 0.00 0.00
0.26 0.34 0.48 0.62 0.42 0.62 0.87 0.88 0.45 0.43 0.10 0.06 0.05 0.02 0.05 0.06 0.04 0.07 0.09 0.06 0.11 0.34 0.33 0.13 0.02 0.01 0.01 0.01 0.00 0.00 0.00 0.00 0.01 0.03 0.03 0.00 0.00 0.01 0.00 0.00 0.00 0.00 0.00 0.00 0.00 0.00 0.00 0.00 0.00 0.00 0.00 0.00 0.00 0.00
0.83 0.85 0.67 0.52 0.51 0.57 0.51 0.43 0.18 0.35 0.11 0.02 0.03 0.04 0.04 0.06 0.10 0.10 0.11 0.14 0.22 0.19 0.11 0.03 0.01 0.01 0.01 0.01 0.01 0.01 0.02 0.02 0.04 0.04 0.01 0.01 0.02 0.01 0.00 0.00 0.00 0.00 0.00 0.00 0.00 0.00 0.00 0.00 0.00 0.00 0.00 0.00 0.00 0.00
1.70 1.21 1.27 0.94 0.62 0.57 0.40 0.09 0.06 0.08 0.08 0.04 0.03 0.03 0.05 0.03 0.04 0.09 0.08 0.16 0.06 0.01 0.00 0.02 0.05 0.03 0.01 0.00 0.01 0.00 0.01 0.01 0.01 0.01 0.01 0.01 0.00 0.00 0.00 0.00 0.00 0.00 0.00 0.00 0.00 0.00 0.00 0.00 0.00 0.00 0.00 0.00 0.00 0.00
1.02 0.77 1.00 0.89 0.78 0.59 0.51 0.03 0.06 0.05 0.05 0.10 0.05 0.03 0.03 0.03 0.05 0.04 0.05 0.02 0.00 0.00 0.00 0.00 0.01 0.02 0.03 0.04 0.05 0.01 0.01 0.00 0.00 0.00 0.00 0.00 0.00 0.00 0.00 0.00 0.00 0.00 0.00 0.00 0.00 0.00 0.00 0.00 0.00 0.00 0.00 0.00 0.00 0.00
0.35 0.69 0.95 0.67 0.50 0.44 0.55 0.13 0.06 0.05 0.03 0.05 0.04 0.02 0.02 0.03 0.06 0.07 0.02 0.00 0.00 0.00 0.00 0.00 0.00 0.00 0.01 0.00 0.00 0.01 0.02 0.01 0.01 0.01 0.00 0.00 0.00 0.00 0.00 0.00 0.00 0.00 0.00 0.00 0.00 0.00 0.00 0.00 0.00 0.00 0.00 0.00 0.00 0.00
0.77 0.84 0.70 0.43 0.22 0.17 0.22 0.12 0.04 0.03 0.02 0.02 0.01 0.01 0.01 0.01 0.02 0.01 0.00 0.00 0.00 0.00 0.00 0.00 0.00 0.00 0.00 0.00 0.00 0.01 0.03 0.01 0.00 0.00 0.00 0.00 0.00 0.00 0.00 0.00 0.00 0.00 0.00 0.00 0.00 0.00 0.00 0.00 0.00 0.00 0.00 0.00 0.00 0.00
0.81 0.43 0.34 0.07 0.05 0.04 0.02 0.01 0.01 0.02 0.02 0.01 0.01 0.01 0.01 0.01 0.01 0.00 0.00 0.00 0.00 0.00 0.00 0.00 0.00 0.00 0.00 0.00 0.00 0.00 0.00 0.00 0.00 0.00 0.00 0.00 0.00 0.00 0.00 0.00 0.00 0.00 0.00 0.00 0.00 0.00 0.00 0.00 0.00 0.00 0.00 0.00 0.00 0.00
0.28 0.10 0.01 0.00 0.00 0.01 0.02 0.02 0.02 0.03 0.03 0.01 0.02 0.02 0.01 0.01 0.00 0.00 0.00 0.00 0.00 0.00 0.00 0.00 0.00 0.00 0.00 0.00 0.00 0.00 0.00 0.00 0.00 0.00 0.00 0.00 0.00 0.00 0.00 0.00 0.00 0.00 0.00 0.00 0.00 0.00 0.00 0.00 0.00 0.00 0.00 0.00 0.00 0.00
0.07 0.00 0.00 0.00 0.00 0.01 0.02 0.03 0.04 0.04 0.02 0.00 0.00 0.00 0.00 0.00 0.00 0.00 0.01 0.00 0.00 0.00 0.00 0.00 0.00 0.00 0.00 0.00 0.00 0.00 0.00 0.00 0.00 0.00 0.00 0.00 0.00 0.00 0.01 0.01 0.00 0.00 0.00 0.00 0.00 0.00 0.00 0.00 0.00 0.00 0.00 0.00 0.00 0.00
0.02 0.00 0.00 0.00 0.00 0.01 0.02 0.03 0.03 0.03 0.01 0.00 0.00 0.00 0.00 0.01 0.01 0.02 0.01 0.01 0.00 0.00 0.00 0.00 0.00 0.00 0.00 0.00 0.00 0.00 0.00 0.00 0.00 0.00 0.00 0.00 0.00 0.00 0.00 0.00 0.00 0.00 0.00 0.00 0.00 0.00 0.00 0.00 0.00 0.00 0.00 0.00 0.00 0.00
0.01 0.00 0.00 0.01 0.03 0.04 0.04 0.03 0.03 0.03 0.01 0.00 0.00 0.00 0.01 0.03 0.06 0.06 0.03 0.02 0.01 0.01 0.01 0.00 0.00 0.00 0.00 0.00 0.00 0.01 0.01 0.00 0.00 0.00 0.00 0.00 0.00 0.00 0.00 0.00 0.00 0.00 0.00 0.00 0.00 0.00 0.00 0.00 0.00 0.00 0.00 0.00 0.00 0.00
0.00 0.00 0.00 0.02 0.05 0.07 0.08 0.06 0.04 0.03 0.03 0.03 0.02 0.03 0.04 0.07 0.09 0.08 0.04 0.03 0.02 0.01 0.01 0.01 0.01 0.01 0.00 0.00 0.00 0.00 0.01 0.00 0.00 0.00 0.00 0.00 0.00 0.00 0.00 0.00 0.00 0.00 0.00 0.00 0.00 0.00 0.00 0.00 0.00 0.00 0.00 0.00 0.00 0.00
0.00 0.00 0.00 0.03 0.09 0.10 0.08 0.06 0.04 0.06 0.08 0.07 0.08 0.06 0.06 0.05 0.05 0.06 0.06 0.06 0.04 0.02 0.02 0.01 0.01 0.01 0.01 0.00 0.00 0.00 0.00 0.00 0.00 0.00 0.00 0.00 0.00 0.00 0.00 0.00 0.00 0.00 0.00 0.00 0.00 0.00 0.00 0.00 0.00 0.00 0.00 0.00 0.00 0.00
0.02 0.01 0.00 0.02 0.06 0.08 0.07 0.06 0.05 0.07 0.07 0.07 0.09 0.07 0.06 0.03 0.03 0.05 0.07 0.08 0.05 0.03 0.02 0.02 0.01 0.01 0.01 0.00 0.00 0.00 0.00 0.00 0.01 0.01 0.01 0.01 0.00 0.00 0.00 0.00 0.00 0.00 0.00 0.00 0.00 0.00 0.00 0.00 0.00 0.00 0.00 0.00 0.00 0.00